sat.trackr.live / text

‹ back to catalog

STARLINK-32254

NORAD 60427 · 2024-144C

PAYLOAD ACTIVE UNKNOWN

§ Identity

Operator
Country
US
Launch date
2024-08-12
Launch site
AFETR
Launch vehicle
Mass (kg)
RCS (m²)

Purposes: comms

External: N2YO · Heavens-Above · Gunter

§ Orbital elements

Epoch: 2026-05-24T22:50:48.561216Z

Period
94.11 min
Inclination
53.1598°
Eccentricity
0.0001121
Mean motion
15.30196580 rev/d
Perigee alt
474.5 km
Apogee alt
476.0 km
Semi-major
6,853.4 km
B*
2.0470e-5
RAAN
223.0183°
Arg perigee
80.3359°
Mean anomaly
279.7768°
Rev number
10,102

§ Raw data

STARLINK-322541 60427U 24144C   26144.95195094  .00000247  00000+0  20470-4 0  99922 60427  53.1598 223.0183 0001121  80.3359 279.7768 15.30196580101022

JSON: /api/v1/satellites/60427 · /tle

For live sub-satellite position, see the globe view (requires WebGL).

§ Visibility from observer

Set your observer location to see the next 7 days of passes ≥ 10°. The values pass through the URL so the page stays shareable.

No JS? Fill the form by hand. The geolocation button needs JavaScript.